Location: Ipswich
(52.0579°N, 1.1528°E)
Time: 21:55:33
(UTC+01:00)

ISS - Pass Details

Date: 18 May 2026
Orbit: 414 x 424 km, 51.6° (Epoch: 15 May)

Event Time Altitude Azimuth Distance (km) Brightness Sun altitude
Rises 23:58:01 0° 281° (WNW) 2,356 0.4 -17.5°
Reaches altitude 10° 00:00:25 10° 266° (W) 1,491 -0.9 -17.6°
Enters shadow 00:01:58 18° 242° (WSW) 1,082 -1.8 -17.6°
